User: anonymous   Login
Location: Harbor Island
(32.3990°N, 80.4435°W)
Time: 22:02:01
(UTC-04:00)
Language:

Cosmos 1455 - Orbit

View from above orbital plane
View from above orbital plane
View from above satellite
View from above satellite

Ground track
Ground track

The orbit data is extracted from the following two-line orbital elements,

1 14032U 83037A   17177.85474101 +.00000730 +00000-0 +35165-4 0  9998
2 14032 082.5173 077.7387 0015912 244.1068 115.8526 15.17051837862844
Epoch (UTC): 26 June 2017 20:30:49
Eccentricity: 0.0015912
inclination: 82.5173°
perigee height: 504 km
apogee height: 526 km
right ascension of ascending node: 77.7387°
argument of perigee: 244.1068°
revolutions per day: 15.17051837
mean anomaly at epoch: 115.8526°
orbit number at epoch: 86284

The dashed part of the orbit path shows where the satellite is in the earth's shadow,  

DLR